Home > Weather > Lincoln > Past weeks

Flag for USA Weather for the Past 2 Weeks in Lincoln, Nebraska, USA

Now
46 °F

Rain. Fog.


Feels Like: 40 °F
Forecast: 46 / 51 °F
Wind: 15 mph from Northeast

Location: Lincoln Municipal Airport

Current Time: Apr 30, 2016 at 6:43:52 AM

Latest Report: Apr 30, 2016 at 5:54 AM


Visibility: 3 mi

Pressure: 29.73 "Hg

Humidity: 93%

Dew Point: 44 °F

Location of LincolnLocation

Historic Weather in Lincoln — Graph

°F

Lincoln Temperature Yesterday

Maximum temperature yesterday: 48 °F (at 11:54 AM)
Minimum temperature yesterday: 45 °F (at 5:54 AM)
Average temperature yesterday: 47 °F

High & Low Weather Summary for the Past Weeks

 TemperatureHumidityPressure
High81 °F (Apr 23, 3:54 PM)97% (Apr 17, 8:54 PM)30.25 "Hg (Apr 17, 8:54 PM)
Low44 °F (Apr 22, 4:54 AM)30% (Apr 15, 3:54 PM)29.35 "Hg (Apr 27, 4:54 AM)
Average59 °F71%29.91 "Hg
* Reported Apr 15 4:54 AM — Apr 30 4:54 AM, Lincoln, Weather by CustomWeather, © 2016

Note: Actual official high and low records may vary slightly from our data, if they occured in-between our weather recording intervals... More about our weather records

Advertising

Lincoln Weather History for the Previous 24 Hours

Scroll right to see more
 ConditionsComfort  
Time TempWeatherWind HumidityBarometerVisibility
4:54 AM
Sat, Apr 30
46 °FRain. Fog.14 mph93%29.74 "Hg4 mi
3:54 AM46 °FLight rain. Low clouds.15 mph93%29.75 "Hg8 mi
2:54 AM46 °FLight rain. Fog.18 mph89%29.77 "Hg5 mi
1:54 AM46 °FLight rain. Fog.22 mph89%29.80 "Hg3 mi
12:54 AM46 °FLight rain. Fog.21 mph89%29.84 "Hg2 mi
11:54 PM
Fri, Apr 29
47 °FLight rain. Overcast.17 mph83%29.89 "Hg7 mi
10:54 PM48 °FOvercast.22 mph80%29.90 "Hg10 mi
9:54 PM48 °FOvercast.21 mph80%29.91 "Hg10 mi
8:54 PM48 °FOvercast.18 mph83%29.92 "Hg9 mi
7:54 PM48 °FOvercast.20 mph83%29.93 "Hg7 mi
6:54 PM48 °FOvercast.21 mph83%29.95 "Hg7 mi
5:54 PM48 °FOvercast.17 mph77%29.96 "Hg8 mi
4:54 PM48 °FOvercast.12 mph77%30.03 "Hg9 mi
4:01 PM48 °FOvercast.14 mph74%30.05 "Hg10 mi
3:54 PM48 °FOvercast.12 mph74%30.05 "Hg10 mi
2:54 PM48 °FOvercast.13 mph74%30.06 "Hg10 mi
1:54 PM48 °FOvercast.14 mph74%30.06 "Hg10 mi
12:54 PM48 °FOvercast.10 mph71%30.08 "Hg10 mi
11:54 AM48 °FOvercast.12 mph71%30.09 "Hg9 mi
11:02 AM47 °FOvercast.12 mph74%30.11 "Hg10 mi
10:54 AM47 °FOvercast.12 mph74%30.12 "Hg10 mi
9:54 AM47 °FOvercast.14 mph71%30.11 "Hg10 mi
8:54 AM47 °FMore clouds than sun.14 mph71%30.09 "Hg10 mi
7:54 AM45 °FOvercast.13 mph82%30.08 "Hg10 mi
6:54 AM45 °FOvercast.12 mph82%30.10 "Hg10 mi
Weather by CustomWeather, © 2016

See weather overviewHow to use our weather pages